ONEWEB-0614 (55156 NORAD) Tracking and Keplerian Element Data

This shows tracking and keplerian element data for the satellite.

Feedback or suggestion? Click here.




ElementValue
Catalog55156
NameONEWEB-0614
Epoch Orbit130
Epoch Day85.00001157
Epoch Year2023
RAAN257.0383
Inclination87.2893
Eccentricity0.0011005
Argument of Perigee359.0055
Mean Anonmoly72.4817
Mean Motion13.89683431
Decay Rate-0.0091318
L11 55156U 23004S 23085.00001157 -.00913180 00000+0 -78508+0 0 9993
L22 55156 87.2893 257.0383 0011005 359.0055 72.4817 13.89683431 1302



Live tracking and technical data element details for ONEWEB-0614 (NORAD 55156). ONEWEB-0614 can be tracked NOW for your location showing map with azimuth and elevation plus other details from your city location.







IsCatalogInMostPopularTable: catalog: 55156, numindb: 10
Update: records affected: 1



GetName: 55156 ONEWEB-0614

Hit Count: updated at: Mon, 27 Mar 2023 07:30:19 GMT